Weather History for Selawik, AK

Change the Weather History Date:

Monday, July 1, 2013

  Actual Average Record
Temperature  
Mean Temperature 55 °F -  
Max Temperature 59 °F 60 °F 82 °F (2004)
Min Temperature 51 °F 48 °F 44 °F (2002)
Degree Days  
Heating Degree Days 10    
Growing Degree Days 5 (Base 50)    
Moisture  
Dew Point 48 °F    
Average Humidity 78    
Maximum Humidity 88    
Minimum Humidity 63    
Precipitation  
Precipitation 0.14 in - - ()
Sea Level Pressure  
Sea Level Pressure 29.48 in    
Wind  
Wind Speed 13 mph (SE)    
Max Wind Speed 18 mph    
Max Gust Speed 24 mph    
Visibility 10 miles    
Events      
Averages and records for this station are not official NWS values.
T = Trace of Precipitation, MM = Missing Value Source: NWS Daily Summary

Daily Weather History Graph

Daily Weather History Graph

Search for Another Location

Airport:

Trip Planner

Search our weather history database for the weather conditions in past years. The results will help you decide how hot, cold, wet, or windy it might be!

Date:

Astronomy

Jul. 01, 2013 Rise Set
Actual Time 3:16 AM AKDT 2:11 AM AKDT
Civil Twilight Sun does not rise Sun does not rise
Nautical Twilight Sun does not rise Sun does not rise
Astronomical Twilight Sun does not rise Sun does not rise
Moon 1:40 AM AKDT (7/1) 6:10 PM AKDT (7/1)
Length of Visible Light 24h 00m
Length of Day
22h 55m
Waning Crescent, 34% of the Moon is Illuminated
Jul 1
Waning Crescent
Jul 7
New
Jul 15
First Quarter
Jul 22
Full
Jul 29
Last Quarter

Hourly Weather History & Observations

Time (AKDT) Temp. Dew Point Humidity Pressure Visibility Wind Dir Wind Speed Gust Speed Precip Events Conditions
12:16 AM 53.6 °F 50.0 °F 88% 29.51 in 10.0 mi SE 10.4 mph 17.3 mph 0.01 in   Overcast
12:36 AM 53.6 °F 50.0 °F 88% 29.51 in 10.0 mi ESE 9.2 mph - 0.02 in   Overcast
12:56 AM 53.6 °F 50.0 °F 88% 29.51 in 10.0 mi ESE 13.8 mph - 0.03 in   Overcast
1:16 AM 53.6 °F 48.2 °F 82% 29.50 in 10.0 mi SE 11.5 mph 17.3 mph N/A   Overcast
1:36 AM 53.6 °F 50.0 °F 88% 29.50 in 5.0 mi ESE 15.0 mph - N/A   Overcast
1:56 AM 51.8 °F 48.2 °F 88% 29.50 in 7.0 mi SE 18.4 mph 24.2 mph 0.01 in   Overcast
2:16 AM 51.8 °F 48.2 °F 88% 29.50 in 9.0 mi SE 15.0 mph - N/A   Mostly Cloudy
2:36 AM 51.8 °F 48.2 °F 88% 29.50 in 9.0 mi SE 15.0 mph 21.9 mph N/A   Mostly Cloudy
2:56 AM 51.8 °F 48.2 °F 88% 29.50 in 6.0 mi SE 16.1 mph 21.9 mph 0.02 in   Overcast
3:16 AM 51.8 °F 48.2 °F 88% 29.50 in 5.0 mi SE 12.7 mph - 0.01 in   Overcast
3:36 AM 51.8 °F 48.2 °F 88% 29.50 in 5.0 mi SE 13.8 mph 19.6 mph 0.01 in   Overcast
3:56 AM 51.8 °F 48.2 °F 88% 29.49 in 7.0 mi SE 13.8 mph 17.3 mph 0.01 in   Overcast
4:16 AM 51.8 °F 48.2 °F 88% 29.49 in 5.0 mi SE 11.5 mph 17.3 mph 0.01 in   Overcast
4:36 AM 51.8 °F 48.2 °F 88% 29.48 in 10.0 mi SE 12.7 mph 18.4 mph 0.01 in   Overcast
4:56 AM 51.8 °F 48.2 °F 88% 29.48 in 10.0 mi ESE 13.8 mph 18.4 mph 0.01 in   Overcast
5:16 AM 51.8 °F 48.2 °F 88% 29.48 in 10.0 mi ESE 15.0 mph 19.6 mph N/A   Overcast
5:36 AM 51.8 °F 48.2 °F 88% 29.48 in 10.0 mi ESE 13.8 mph 19.6 mph N/A   Overcast
5:56 AM 51.8 °F 48.2 °F 88% 29.48 in 10.0 mi ESE 15.0 mph 19.6 mph N/A   Overcast
6:16 AM 51.8 °F 48.2 °F 88% 29.48 in 10.0 mi ESE 13.8 mph 17.3 mph N/A   Overcast
6:36 AM 51.8 °F 48.2 °F 88% 29.48 in 10.0 mi ESE 13.8 mph 18.4 mph N/A   Overcast
6:56 AM 51.8 °F 48.2 °F 88% 29.48 in 8.0 mi ESE 11.5 mph 18.4 mph N/A   Overcast
7:16 AM 51.8 °F 48.2 °F 88% 29.48 in 10.0 mi ESE 11.5 mph 17.3 mph N/A   Overcast
7:36 AM 51.8 °F 48.2 °F 88% 29.48 in 10.0 mi ESE 13.8 mph - N/A   Overcast
7:56 AM 51.8 °F 48.2 °F 88% 29.48 in 10.0 mi ESE 13.8 mph 19.6 mph 0.01 in   Overcast
8:16 AM 51.8 °F 48.2 °F 88% 29.48 in 10.0 mi ESE 12.7 mph 19.6 mph N/A   Overcast
8:36 AM 51.8 °F 48.2 °F 88% 29.48 in 10.0 mi ESE 12.7 mph 18.4 mph N/A   Overcast
8:56 AM 51.8 °F 48.2 °F 88% 29.48 in 10.0 mi ESE 13.8 mph 20.7 mph 0.01 in   Overcast
9:16 AM 51.8 °F 48.2 °F 88% 29.48 in 10.0 mi ESE 12.7 mph 18.4 mph 0.01 in   Overcast
9:36 AM 51.8 °F 48.2 °F 88% 29.48 in 10.0 mi ESE 15.0 mph 20.7 mph 0.01 in   Mostly Cloudy
9:56 AM 51.8 °F 48.2 °F 88% 29.48 in 10.0 mi SE 13.8 mph 21.9 mph 0.03 in   Mostly Cloudy
10:16 AM 51.8 °F 48.2 °F 88% 29.48 in 10.0 mi SE 13.8 mph 18.4 mph 0.01 in   Overcast
10:36 AM 53.6 °F 48.2 °F 82% 29.48 in 10.0 mi SE 13.8 mph - 0.01 in   Mostly Cloudy
10:56 AM 53.6 °F 48.2 °F 82% 29.48 in 10.0 mi ESE 15.0 mph 19.6 mph 0.01 in   Overcast
11:16 AM 53.6 °F 48.2 °F 82% 29.48 in 10.0 mi SE 12.7 mph - N/A   Overcast
11:36 AM 53.6 °F 48.2 °F 82% 29.48 in 10.0 mi SE 15.0 mph - N/A   Overcast
11:56 AM 55.4 °F 48.2 °F 77% 29.48 in 10.0 mi ESE 16.1 mph 23.0 mph N/A   Overcast
12:16 PM 55.4 °F 48.2 °F 77% 29.48 in 10.0 mi ESE 15.0 mph 23.0 mph N/A   Overcast
12:36 PM 55.4 °F 48.2 °F 77% 29.48 in 10.0 mi SE 15.0 mph 23.0 mph N/A   Overcast
12:56 PM 55.4 °F 48.2 °F 77% 29.48 in 10.0 mi SE 15.0 mph 24.2 mph N/A   Overcast
1:16 PM 55.4 °F 48.2 °F 77% 29.48 in 10.0 mi SE 17.3 mph 23.0 mph N/A   Overcast
1:36 PM 55.4 °F 48.2 °F 77% 29.47 in 10.0 mi SE 17.3 mph 24.2 mph N/A   Overcast
1:56 PM 57.2 °F 46.4 °F 67% 29.48 in 10.0 mi SE 13.8 mph 23.0 mph N/A   Overcast
2:16 PM 57.2 °F 46.4 °F 67% 29.48 in 10.0 mi SE 17.3 mph 23.0 mph N/A   Overcast
2:36 PM 55.4 °F 48.2 °F 77% 29.48 in 10.0 mi SE 13.8 mph 21.9 mph N/A   Overcast
2:56 PM 55.4 °F 46.4 °F 72% 29.48 in 10.0 mi SE 15.0 mph 23.0 mph N/A   Overcast
3:16 PM 55.4 °F 46.4 °F 72% 29.48 in 10.0 mi SE 13.8 mph 20.7 mph N/A   Overcast
3:36 PM 55.4 °F 46.4 °F 72% 29.47 in 10.0 mi SSE 12.7 mph - N/A   Overcast
3:56 PM 57.2 °F 46.4 °F 67% 29.47 in 10.0 mi SSE 12.7 mph - N/A   Mostly Cloudy
4:16 PM 57.2 °F 46.4 °F 67% 29.46 in 10.0 mi SSE 10.4 mph - N/A   Overcast
4:36 PM 57.2 °F 46.4 °F 67% 29.46 in 10.0 mi South 6.9 mph - N/A   Overcast
4:56 PM 57.2 °F 46.4 °F 67% 29.46 in 10.0 mi South 8.1 mph - N/A   Mostly Cloudy
5:16 PM 57.2 °F 48.2 °F 72% 29.46 in 10.0 mi SSE 12.7 mph 17.3 mph N/A   Mostly Cloudy
5:36 PM 59.0 °F 46.4 °F 63% 29.46 in 10.0 mi SSE 15.0 mph 21.9 mph N/A   Overcast
5:56 PM 57.2 °F 46.4 °F 67% 29.45 in 10.0 mi SSE 10.4 mph - N/A   Overcast
6:16 PM 57.2 °F 46.4 °F 67% 29.45 in 10.0 mi South 12.7 mph 21.9 mph N/A   Overcast
6:36 PM 57.2 °F 46.4 °F 67% 29.45 in 10.0 mi SSE 13.8 mph - N/A   Overcast
6:56 PM 57.2 °F 46.4 °F 67% 29.45 in 10.0 mi SE 11.5 mph 17.3 mph N/A   Overcast
7:16 PM 57.2 °F 46.4 °F 67% 29.45 in 10.0 mi ESE 16.1 mph 20.7 mph N/A   Overcast
7:36 PM 57.2 °F 48.2 °F 72% 29.45 in 10.0 mi SE 9.2 mph - N/A   Overcast
7:56 PM 57.2 °F 48.2 °F 72% 29.45 in 10.0 mi SE 8.1 mph - N/A   Mostly Cloudy
8:16 PM 57.2 °F 46.4 °F 67% 29.45 in 10.0 mi SSE 5.8 mph - N/A   Overcast
8:36 PM 57.2 °F 46.4 °F 67% 29.45 in 10.0 mi SSE 5.8 mph - N/A   Overcast
8:56 PM 59.0 °F 46.4 °F 63% 29.45 in 10.0 mi SSE 6.9 mph - N/A   Mostly Cloudy
9:16 PM 57.2 °F 48.2 °F 72% 29.46 in 10.0 mi ESE 6.9 mph - N/A   Overcast
9:36 PM 57.2 °F 46.4 °F 67% 29.45 in 10.0 mi East 8.1 mph - N/A   Mostly Cloudy
9:56 PM 59.0 °F 46.4 °F 63% 29.46 in 10.0 mi ESE 6.9 mph - N/A   Partly Cloudy
10:16 PM 57.2 °F 46.4 °F 67% 29.46 in 10.0 mi SE 5.8 mph - N/A   Clear
10:36 PM 57.2 °F 46.4 °F 67% 29.46 in 10.0 mi ESE 5.8 mph - N/A   Clear
10:56 PM 57.2 °F 48.2 °F 72% 29.46 in 10.0 mi ESE 5.8 mph - N/A   Scattered Clouds
11:16 PM 57.2 °F 46.4 °F 67% 29.46 in 10.0 mi SE 6.9 mph - N/A   Partly Cloudy
11:36 PM 55.4 °F 46.4 °F 72% 29.46 in 10.0 mi SE 6.9 mph - N/A   Partly Cloudy
11:56 PM 55.4 °F 46.4 °F 72% 29.47 in 10.0 mi SE 4.6 mph - N/A   Scattered Clouds